DELTA 2 R/B

Satellite information

Favourite Embed

Satellite Type and Status

ROCKET BODYIN ORBIT

Key statistics

Satellite DELTA 2 R/B at a glance.

Uptime

12686

Days in orbit

Revolutions

≈ 14.6

Per day

Orbit

LEO

Low Earth Orbit

Inclination

24.8

Latest

Satellite identification and parameters

Extended collection of information and parameters for DELTA 2 R/B.

Object identification

Identified? True

Debris? False

Object name: DELTA 2 R/B

International designator: 1990-074B

Object number (NORAD): 20763

Object ID (CCSDS): 20763

Country: UNITED STATES OF AMERICA (US)

Current information (Y/N): Y

RCS size: LARGE

Orbital parameters

Period: 98.62 minutes

Inclination: 24.7585 deg

SMA: 7070.841 km

Apoapsis: 934.853 km

Periapsis: 450.558 km

RAAN: 326.3747 deg

Eccentricy: 0.0342459

Argument of periapsis: 110.6777 deg

Mean anomaly: 253.0786 deg

Mean motion: 14.60145669 rev/day

Mean motion (dot): 0.0000803 rev/day2

B* drag term: 0.00067251 1/REarth

Two-line elements (TLE)

Creation date: May 11, 2025, 10:21 p.m.

Reference frame: TEME

Reference center: EARTH

Epoch: May 11, 2025, 3:19 p.m. UTC

TLE line 0: 0 DELTA 2 R/B

TLE line 1: 1 20763U 90074B 25131.63862584 .00008030 00000-0 67251-3 0 9997

TLE line 2: 2 20763 24.7585 326.3747 0342459 110.6777 253.0786 14.60145669819167

Live tracking on map

Real-time ground track for satellite DELTA 2 R/B.

In-orbit conjunctions

A list of the most updated potential collisions computed for object DELTA 2 R/B.

Target Orbit TCA Probability of collision Miss distance Type
COSMOS 2251 DEB LEO 2025-03-22 08:06:46 0.0001003022 837.0 (m) DEBRIS
GGSE 4 LEO 2025-03-15 23:08:24 0.0003012497 21.0 (m) PAYLOAD
CZ-6A DEB LEO 2024-10-19 05:33:28 0.0005298297 178.0 (m) DEBRIS

Associated space launch

British geostationary communications satellite

DELTA 2 R/B was lifted into orbit during the mission ‘Delta 6925 | Marcopolo 2’, on board a Delta 6925 space rocket.

The launch took place on Aug. 18, 1990, 12:42 a.m. from Space Launch Complex 17B.

For more information about the launch, click the button.

Launch to space Delta 6925 | Marcopolo 2
Delta 6925 | Marcopolo 2

Agency: N/A

Status: Launch Successful

Launch date: Aug. 18, 1990, 12:42 a.m. UTC

Rocket: Delta 6925

Launch pad: Space Launch Complex 17B

Location: Cape Canaveral SFS, FL, USA

...

Latest news about this satellite

There are no fresh news available about this satellite. Check back as we update our databases every day.


Newsletter sign-up

Weekly statistics, charts and insights to help you stay on top of the space industry.